CZ-6A DEB

Satellite information

Favourite Embed

Satellite Type and Status

DEBRISIN ORBIT

Key statistics

Satellite CZ-6A DEB at a glance.

Uptime

1079

Days in orbit

Revolutions

≈ 15.0

Per day

Orbit

SSO

Sun Synchronous Orbit

Inclination

98.8

Latest

Satellite identification and parameters

Extended collection of information and parameters for CZ-6A DEB.

Object identification

Identified? True

Debris? True

Object name: CZ-6A DEB

International designator: 2022-151TQ

Object number (NORAD): 54975

Object ID (CCSDS): 54975

Country: PEOPLES REPUBLIC OF CHINA (PRC)

Current information (Y/N): Y

RCS size: SMALL

Orbital parameters

Period: 96.278 minutes

Inclination: 98.8193 deg

SMA: 6958.414 km

Apoapsis: 633.889 km

Periapsis: 526.67 km

RAAN: 36.0151 deg

Eccentricy: 0.00770431

Argument of periapsis: 242.2841 deg

Mean anomaly: 117.0546 deg

Mean motion: 14.95675354 rev/day

Mean motion (dot): 0.00073396 rev/day2

B* drag term: 0.0061646624 1/REarth

Two-line elements (TLE)

Creation date: Oct. 25, 2025, 3:11 a.m.

Reference frame: TEME

Reference center: EARTH

Epoch: Oct. 24, 2025, 5:17 p.m. UTC

TLE line 0: 0 CZ-6A DEB

TLE line 1: 1 54975U 22151TQ 25297.72039421 .00073396 00000-0 61647-2 0 9998

TLE line 2: 2 54975 98.8193 36.0151 0077043 242.2841 117.0546 14.95675354156689

Live tracking on map

Real-time ground track for satellite CZ-6A DEB.

In-orbit conjunctions

A list of the most updated potential collisions computed for object CZ-6A DEB.

Target Orbit TCA Probability of collision Miss distance Type
DUMMY MASS 2 LEO 2025-09-20 16:49:13 0.000279399 312.0 (m) PAYLOAD
FENGYUN 1C DEB SSO 2024-11-11 12:23:47 0.0002237819 324.0 (m) DEBRIS
HELIOS 1B SSO 2024-09-28 02:57:28 0.0001723122 569.0 (m) PAYLOAD

Associated space launch

Chinese satellite reported for atmospheric/ocean/environmental/spatial parameter research purposes, details TBD.

CZ-6A DEB was lifted into orbit during the mission ‘Long March 6A | Yunhai 3’, on board a Long March 6A space rocket.

The launch took place on Nov. 11, 2022, 10:52 p.m. from Launch Complex 9A.

For more information about the launch, click the button.

Launch to space Long March 6A | Yunhai 3
Long March 6A | Yunhai 3

Agency: N/A

Status: Launch Successful

Launch date: Nov. 11, 2022, 10:52 p.m. UTC

Rocket: Long March 6A

Launch pad: Launch Complex 9A

Location: Taiyuan Satellite Launch Center, People's Republic of China

...

Latest news about this satellite

There are no fresh news available about this satellite. Check back as we update our databases every day.


Newsletter sign-up

Weekly statistics, charts and insights to help you stay on top of the space industry.